Regional Weather Roundup
Issued by NWS

Home | Current Version | Previous Version | Graphics & Text | Print | Product List | Glossary On
Versions: 1 2 3 4 5 6 7 8 9 10 11 12 13 14 15 16 17 18 19 20 21 22 23 24 25 26 27 28 29 30 31 32 33 34 35 36 37 38 39 40 41 42 43 44 45 46 47 48 49 50
000
ASUS43 KDTX 152101
RWRMI
MICHIGAN HOURLY REGIONAL WEATHER ROUNDUP
NATIONAL WEATHER SERVICE DETROIT/PONTIAC MI
400 PM EST MON JAN 15 2018

NOTE: "FAIR" INDICATES FEW OR NO CLOUDS BELOW 12,000 FEET WITH NO
SIGNIFICANT WEATHER AND/OR OBSTRUCTION TO VISIBILITY.

MIZ047>049-052>055-059>063-066>070-074>076-081>083-152200-
SOUTHEAST LOWER MICHIGAN

CITY           SKY/WX    TMP DP  RH WIND       PRES   REMARKS
ADRIAN         LGT SNOW  20  16  84 SE6       30.20S FOG     WCI  12
ALMA           LGT SNOW  19  16  86 E10       30.23R WCI   8
ANN ARBOR      LGT SNOW  19  15  84 E6        30.20S FOG     WCI  11
BAD AXE        LGT SNOW  18  13  82 E8        30.27R WCI   7
CARO           LGT SNOW  18  13  82 E6        30.24R WCI   9
DETROIT CITY   LGT SNOW  20  17  88 SE8       30.23S FOG     WCI  10
DETROIT        LGT SNOW  21  16  81 SE7       30.23S WCI  12
FLINT          LGT SNOW  19  14  81 E9        30.22R WCI   8
GROSSE ILE     LGT SNOW  22  18  86 CALM      30.22S
HILLSDALE      LGT SNOW  21  16  79 SE5       30.15R WCI  15
HOWELL         SNOW      20  17  87 SE6       30.19R VSB 1/2 WCI  12

CITY           SKY/WX    TMP DP  RH WIND       PRES   REMARKS
JACKSON        LGT SNOW  20  14  77 SE7       30.18R WCI  11
LAMBERTVILLE   LGT SNOW  22  18  84 S5        30.21R WCI  15
LANSING        LGT SNOW  20  15  81 SE5       30.20R WCI  13
LAPEER         LGT SNOW  18  14  84 E5        30.23S VSB 1   WCI  11
MASON          LGT SNOW  21  14  73 SE3       30.19R
MT. CLEMENS    LGT SNOW  20  19  96 SE12      30.22S FOG     WCI   8
PONTIAC        LGT SNOW  18  15  88 SE7       30.19R VSB 1   WCI   9
PORT HOPE        N/A     20  14  77 SE12      30.27R WCI   8
PORT HURON     LGT SNOW  18  14  86 SE8       30.26R WCI   7
TRI CITIES     LGT SNOW  18  14  84 E9        30.25R FOG     WCI   7
MIDLAND        SNOW      18  14  83 E8        30.25R VSB 1/2 WCI   8
TROY           LGT SNOW  22  19  88 SE5       30.24S VSB 3/4 WCI  15
SAGINAW HB     LGT SNOW  19  14  79 E8        30.25R WCI   9
$$
MIZ043>046-050>051-056>058-064>065-071>073-077>080-152200-
SOUTHWEST LOWER MICHIGAN

CITY           SKY/WX    TMP DP  RH WIND       PRES   REMARKS
BATTLE CREEK   LGT SNOW  21  16  81 SE5       30.17R WCI  15
BENTON HARBOR  LGT SNOW  23  17  78 E6        30.17R WCI  16
BIG RAPIDS     CLOUDY    18  11  73 SE10      30.19R WCI   6
COLDWATER      LGT SNOW  21  18  85 SE6       30.16R WCI  14
HOLLAND        LGT SNOW  21  15  78 E9        30.18R WCI  11
GRAND RAPIDS   LGT SNOW  20  14  77 E9        30.19R WCI   9
IONIA          LGT SNOW  20  16  82 SE6       30.19R WCI  12
KALAMAZOO      LGT SNOW  22  16  78 SE6       30.17R WCI  14
LUDINGTON      FLURRIES  19  13  77 E9        30.21R WCI   8
MARSHALL       LGT SNOW  20  15  79 S3        30.16S
MOUNT PLEASANT LGT SNOW  19  14  79 E7        30.22R WCI  10
MUSKEGON       LGT SNOW  20  12  71 E7        30.20R WCI  11
SOUTH HAVEN    LGT SNOW  23  17  78 SE5       30.17R WCI  17
$$
MIZ016>042-152200-
NORTHERN LOWER MICHIGAN

CITY           SKY/WX    TMP DP  RH WIND       PRES   REMARKS
ALPENA         LGT SNOW  20  17  88 E12       30.30S FOG     WCI   8
BEAVER ISLAND  CLOUDY    21  14  75 E7        30.30R HAZE    WCI  12
BELLAIRE       CLOUDY    20  14  78 NE6       30.28R HAZE    WCI  12
CADILLAC       LGT SNOW  15  11  83 E10       30.18R WCI   3
CHARLEVOIX     LGT SNOW  20  15  79 E5        30.30S WCI  14
FRANKFORT      LGT SNOW  21  16  81 E6        30.24R WCI  13
GAYLORD        CLOUDY    17  13  84 VRB3      30.21S FOG
GRAYLING       LGT SNOW  18  11  74 E8        30.23R WCI   8
HARBOR SPRINGS LGT SNOW  20  14  76 E7        30.28R WCI  12
HOUGHTON LAKE  LGT SNOW  16  11  80 E12       30.22R WCI   3
MANISTEE       LGT SNOW  20  13  74 E9        30.22R WCI   9
OSCODA         SNOW      20  16  84 SE3       30.28S VSB 1/4
PELLSTON       CLOUDY    21  14  74 E8        30.29S WCI  11
ROGERS CITY    CLOUDY    21  15  78 SE9       30.32R WCI  11
TRAVERSE CITY  LGT SNOW  20  12  71 E10       30.25R WCI   9
$$
MIZ007>008-015-152200-
EASTERN UPPER MICHIGAN

CITY           SKY/WX    TMP DP  RH WIND       PRES   REMARKS
KINROSS        LGT SNOW  16  12  84 E21G28    30.34R FOG     WCI  -1
MACKINAC ISLAN HVY SNOW  20  17  86 NE13G21   30.31R VSB<1/4 WCI   7
NEWBERRY       LGT SNOW  19  18  98 NE5       30.31S WCI  12
S. S. MARIE    LGT SNOW  19  12  74 E13G23    30.36S WCI   6
MUNISING         N/A     19  14  81 E5        30.34R WCI  12
$$
MIZ004>006-011>014-085-152200-
CENTRAL UPPER MICHIGAN

CITY           SKY/WX    TMP DP  RH WIND       PRES   REMARKS
MANISTIQUE     LGT SNOW  18  15  89 NE6       30.31R WCI  10
ESCANABA       LGT SNOW  20  15  81 E10       30.29R WCI   9
MENOMINEE      LGT SNOW  22  18  85 NE12      30.26R FOG     WCI  10
SAWYER-GWINN   LGT SNOW  18  12  79 NE7       30.27R WCI   8
$$
MIZ001>003-009>011-084-152200-
WESTERN UPPER MICHIGAN

CITY           SKY/WX    TMP DP  RH WIND       PRES   REMARKS
IRON MOUNTAIN  LGT SNOW  20  16  84 E6        30.22R FOG     WCI  12
HOUGHTON       LGT SNOW  21  15  78 NE9       30.30R WCI  11
COPPER HARBOR    N/A     22  16  78 SE8G17    30.36R WCI  12
IRONWOOD       FLURRIES  20  14  77 N7        30.29R WCI  11
$$

ABBREVIATIONS USED IN REMARKS
   TC - TEMPERATURE IN CELSIUS
  WCI - WIND CHILL INDEX
   HX - HEAT INDEX
  VSB - VISIBILITY





USA.gov is the U.S. government's official web portal to all federal, state and local government web resources and services.